Year,Month,Day,Hour,Minute,Value (Times are PST for temperature in C)
2012,06,19,01,02,11.20
2012,06,19,01,03,11.20
2012,06,19,01,04,11.20
2012,06,19,01,05,11.20
2012,06,19,01,06,11.20
2012,06,19,01,07,11.20
2012,06,19,01,08,11.30
2012,06,19,01,09,11.30
2012,06,19,01,10,11.30
2012,06,19,01,11,11.30
2012,06,19,01,12,11.30
2012,06,19,01,13,11.30
2012,06,19,01,14,11.30
2012,06,19,01,15,11.30
2012,06,19,01,16,11.30
2012,06,19,01,17,11.30
2012,06,19,01,18,11.30
2012,06,19,01,19,11.30
2012,06,19,01,20,11.30
2012,06,19,01,21,11.40
2012,06,19,01,22,11.40
2012,06,19,01,23,11.40
2012,06,19,01,24,11.40
2012,06,19,01,25,11.40
2012,06,19,01,26,11.40
2012,06,19,01,27,11.40
2012,06,19,01,28,11.40
2012,06,19,01,29,11.40
2012,06,19,01,30,11.40
2012,06,19,01,31,11.40
2012,06,19,01,32,11.40
2012,06,19,01,33,11.40
2012,06,19,01,34,11.40
2012,06,19,01,35,11.50
2012,06,19,01,36,11.60
2012,06,19,01,37,11.60
2012,06,19,01,38,11.60
2012,06,19,01,39,11.60
2012,06,19,01,40,11.60
2012,06,19,01,41,11.60
2012,06,19,01,42,11.60
2012,06,19,01,43,11.60
2012,06,19,01,44,11.60
2012,06,19,01,45,11.60
2012,06,19,01,46,11.60
2012,06,19,01,47,11.60
2012,06,19,01,48,11.50
2012,06,19,01,49,11.40
2012,06,19,01,50,11.40
2012,06,19,01,51,11.40
2012,06,19,01,52,11.40
2012,06,19,01,53,11.40
2012,06,19,01,54,11.40
2012,06,19,01,55,11.50
2012,06,19,01,56,11.60
2012,06,19,01,57,11.60
2012,06,19,01,58,11.60
2012,06,19,01,59,11.60
2012,06,19,02,00,11.60
2012,06,19,02,01,11.60
2012,06,19,02,02,11.60
2012,06,19,02,03,11.60
2012,06,19,02,04,11.60
2012,06,19,02,05,11.60
2012,06,19,02,06,11.60
2012,06,19,02,07,11.60
2012,06,19,02,08,11.60
2012,06,19,02,09,11.60
2012,06,19,02,10,11.60
2012,06,19,02,11,11.60
2012,06,19,02,12,11.60
2012,06,19,02,13,11.60
2012,06,19,02,14,11.60
2012,06,19,02,15,11.60
2012,06,19,02,16,11.60
2012,06,19,02,17,11.60
2012,06,19,02,18,11.60
2012,06,19,02,19,11.60
2012,06,19,02,20,11.60
2012,06,19,02,21,11.60
2012,06,19,02,22,11.60
2012,06,19,02,23,11.60
2012,06,19,02,24,11.60
2012,06,19,02,25,11.60
2012,06,19,02,26,11.60
2012,06,19,02,27,11.60
2012,06,19,02,28,11.60
2012,06,19,02,29,11.60
2012,06,19,02,30,11.60
2012,06,19,02,31,11.60
2012,06,19,02,32,11.60
2012,06,19,02,33,11.60
2012,06,19,02,34,11.60
2012,06,19,02,35,11.60
2012,06,19,02,36,11.60
2012,06,19,02,37,11.60
2012,06,19,02,38,11.60
2012,06,19,02,39,11.60
2012,06,19,02,40,11.60
2012,06,19,02,41,11.60
2012,06,19,02,42,11.60
2012,06,19,02,43,11.60
2012,06,19,02,44,11.60
2012,06,19,02,45,11.60
2012,06,19,02,46,11.60
2012,06,19,02,47,11.60
2012,06,19,02,48,11.60
2012,06,19,02,49,11.60
2012,06,19,02,50,11.60
2012,06,19,02,51,11.60
2012,06,19,02,52,11.60
2012,06,19,02,53,11.60
2012,06,19,02,54,11.60
2012,06,19,02,55,11.60
2012,06,19,02,56,11.60
2012,06,19,02,57,11.60
2012,06,19,02,58,11.60
2012,06,19,02,59,11.60
2012,06,19,03,00,11.60
2012,06,19,03,01,11.60
2012,06,19,03,02,11.60
2012,06,19,03,03,11.60
2012,06,19,03,04,11.60
2012,06,19,03,05,11.60
2012,06,19,03,06,11.60
2012,06,19,03,07,11.60
2012,06,19,03,08,11.60
2012,06,19,03,09,11.60
2012,06,19,03,10,11.60
2012,06,19,03,11,11.60
2012,06,19,03,12,11.60
2012,06,19,03,13,11.60
2012,06,19,03,14,11.60
2012,06,19,03,15,11.60
2012,06,19,03,16,11.60
2012,06,19,03,17,11.60
2012,06,19,03,18,11.70
2012,06,19,03,19,11.70
2012,06,19,03,20,11.70
2012,06,19,03,21,11.70
2012,06,19,03,22,11.70
2012,06,19,03,23,11.70
2012,06,19,03,24,11.70
2012,06,19,03,25,11.70
2012,06,19,03,26,11.70
2012,06,19,03,27,11.70
2012,06,19,03,28,11.70
2012,06,19,03,29,11.70
2012,06,19,03,30,11.70
2012,06,19,03,31,11.70
2012,06,19,03,32,11.70
2012,06,19,03,33,11.70
2012,06,19,03,34,11.70
2012,06,19,03,35,11.70
2012,06,19,03,36,11.60
2012,06,19,03,37,11.60
2012,06,19,03,38,11.60
2012,06,19,03,39,11.60
2012,06,19,03,40,11.60
2012,06,19,03,41,11.60
2012,06,19,03,42,11.60
2012,06,19,03,43,11.60
2012,06,19,03,44,11.60
2012,06,19,03,45,11.60
2012,06,19,03,46,11.40
2012,06,19,03,47,11.40
2012,06,19,03,48,11.40
2012,06,19,03,49,11.40
2012,06,19,03,50,11.40
2012,06,19,03,51,11.40
2012,06,19,03,52,11.40
2012,06,19,03,53,11.40
2012,06,19,03,54,11.40
2012,06,19,03,55,11.40
2012,06,19,03,56,11.40
2012,06,19,03,57,11.40
2012,06,19,03,58,11.60
2012,06,19,03,59,11.60
2012,06,19,04,00,11.50
2012,06,19,04,01,11.40
2012,06,19,04,02,11.40
2012,06,19,04,03,11.40
2012,06,19,04,04,11.40
2012,06,19,04,05,11.40
2012,06,19,04,06,11.40
2012,06,19,04,07,11.40
2012,06,19,04,08,11.40
2012,06,19,04,09,11.30
2012,06,19,04,10,11.30
2012,06,19,04,11,11.30
2012,06,19,04,12,11.30
2012,06,19,04,13,11.20
2012,06,19,04,14,11.20
2012,06,19,04,15,11.20
2012,06,19,04,16,11.20
2012,06,19,04,17,11.20
2012,06,19,04,18,11.20
2012,06,19,04,19,11.20
2012,06,19,04,20,11.20
2012,06,19,04,21,11.20
2012,06,19,04,22,11.20
2012,06,19,04,23,11.20
2012,06,19,04,24,11.20
2012,06,19,04,25,11.20
2012,06,19,04,26,11.20
2012,06,19,04,27,11.20
2012,06,19,04,28,11.20
2012,06,19,04,29,11.20
2012,06,19,04,30,11.20
2012,06,19,04,31,11.20
2012,06,19,04,32,11.20
2012,06,19,04,33,11.20
2012,06,19,04,34,11.20
2012,06,19,04,35,11.20
2012,06,19,04,36,11.20
2012,06,19,04,37,11.20
2012,06,19,04,38,11.20
2012,06,19,04,39,11.20
2012,06,19,04,40,11.20
2012,06,19,04,41,11.20
2012,06,19,04,42,11.20
2012,06,19,04,43,11.20
2012,06,19,04,44,11.20
2012,06,19,04,45,11.20
2012,06,19,04,46,11.20
2012,06,19,04,47,11.20
2012,06,19,04,48,11.20
2012,06,19,04,49,11.20
2012,06,19,04,50,11.20
2012,06,19,04,51,11.20
2012,06,19,04,52,11.20
2012,06,19,04,53,11.20
2012,06,19,04,54,11.20
2012,06,19,04,55,11.20
2012,06,19,04,56,11.20
2012,06,19,04,57,11.20
2012,06,19,04,58,11.20
2012,06,19,04,59,11.10
2012,06,19,05,00,11.10
2012,06,19,05,01,11.10
2012,06,19,05,02,11.00
2012,06,19,05,03,10.90
2012,06,19,05,04,10.90
2012,06,19,05,05,10.90
2012,06,19,05,06,10.90
2012,06,19,05,07,10.90
2012,06,19,05,08,10.80
2012,06,19,05,09,10.80
2012,06,19,05,10,10.80
2012,06,19,05,11,10.80
2012,06,19,05,12,10.80
2012,06,19,05,13,10.80
2012,06,19,05,14,10.80
2012,06,19,05,15,10.80
2012,06,19,05,16,10.80
2012,06,19,05,17,10.80
2012,06,19,05,18,10.80
2012,06,19,05,19,10.80
2012,06,19,05,20,10.80
2012,06,19,05,21,10.80
2012,06,19,05,22,10.80
2012,06,19,05,23,10.80
2012,06,19,05,24,10.90
2012,06,19,05,25,10.90
2012,06,19,05,26,10.90
2012,06,19,05,27,10.90
2012,06,19,05,28,10.90
2012,06,19,05,29,10.90
2012,06,19,05,30,10.90
2012,06,19,05,31,10.90
2012,06,19,05,32,10.90
2012,06,19,05,33,10.90
2012,06,19,05,34,10.90
2012,06,19,05,35,10.90
2012,06,19,05,36,10.90
2012,06,19,05,37,10.90
2012,06,19,05,38,10.90
2012,06,19,05,39,10.90
2012,06,19,05,40,10.90
2012,06,19,05,41,10.90
2012,06,19,05,42,10.90
2012,06,19,05,43,10.90
2012,06,19,05,44,10.90
2012,06,19,05,45,10.90
2012,06,19,05,46,10.90
2012,06,19,05,47,10.90
2012,06,19,05,48,10.90
2012,06,19,05,49,10.90
2012,06,19,05,50,10.90
2012,06,19,05,51,10.90
2012,06,19,05,52,10.90
2012,06,19,05,53,10.90
2012,06,19,05,54,10.90
2012,06,19,05,55,10.90
2012,06,19,05,56,10.90
2012,06,19,05,57,10.90
2012,06,19,05,58,10.90
2012,06,19,05,59,10.90
2012,06,19,06,00,11.00
2012,06,19,06,01,11.10
2012,06,19,06,02,11.10
2012,06,19,06,03,11.10
2012,06,19,06,04,11.10
2012,06,19,06,05,11.10
2012,06,19,06,06,11.10
2012,06,19,06,07,11.10
2012,06,19,06,08,11.10
2012,06,19,06,09,11.10
2012,06,19,06,10,11.10
2012,06,19,06,11,11.10
2012,06,19,06,12,11.10
2012,06,19,06,13,11.10
2012,06,19,06,14,11.10
2012,06,19,06,15,11.10
2012,06,19,06,16,11.10
2012,06,19,06,17,11.10
2012,06,19,06,18,11.10
2012,06,19,06,19,11.10
2012,06,19,06,20,11.10
2012,06,19,06,21,11.10
2012,06,19,06,22,11.10
2012,06,19,06,23,11.10
2012,06,19,06,24,11.10
2012,06,19,06,25,11.10
2012,06,19,06,26,11.10
2012,06,19,06,27,11.10
2012,06,19,06,28,11.10
2012,06,19,06,29,11.10
2012,06,19,06,30,11.10
2012,06,19,06,31,11.10
2012,06,19,06,32,11.10
2012,06,19,06,33,11.10
2012,06,19,06,34,11.20
2012,06,19,06,35,11.20
2012,06,19,06,36,11.20
2012,06,19,06,37,11.20
2012,06,19,06,38,11.20
2012,06,19,06,39,11.20
2012,06,19,06,40,11.20
2012,06,19,06,41,11.20
2012,06,19,06,42,11.20
2012,06,19,06,43,11.20
2012,06,19,06,44,11.20
2012,06,19,06,45,11.20
2012,06,19,06,46,11.20
2012,06,19,06,47,11.10
2012,06,19,06,48,11.10
2012,06,19,06,49,11.10
2012,06,19,06,50,11.10
2012,06,19,06,51,11.10
2012,06,19,06,52,11.10
2012,06,19,06,53,11.10
2012,06,19,06,54,11.10
2012,06,19,06,55,11.10
2012,06,19,06,56,11.10
2012,06,19,06,57,11.10
2012,06,19,06,58,11.10
2012,06,19,06,59,11.10
2012,06,19,07,00,11.10
2012,06,19,07,01,11.10
2012,06,19,07,02,11.10
2012,06,19,07,03,11.10
2012,06,19,07,04,11.10
2012,06,19,07,05,11.00
2012,06,19,07,06,10.90
2012,06,19,07,07,10.90
2012,06,19,07,08,10.90
2012,06,19,07,09,10.90
2012,06,19,07,10,10.80
2012,06,19,07,11,10.80
2012,06,19,07,12,10.70
2012,06,19,07,13,10.70
2012,06,19,07,14,10.70
2012,06,19,07,15,10.60
2012,06,19,07,16,10.60
2012,06,19,07,17,10.60
2012,06,19,07,18,10.60
2012,06,19,07,19,10.60
2012,06,19,07,20,10.60
2012,06,19,07,21,10.60
2012,06,19,07,22,10.60
2012,06,19,07,23,10.60
2012,06,19,07,24,10.60
2012,06,19,07,25,10.60
2012,06,19,07,26,10.60
2012,06,19,07,27,10.60
2012,06,19,07,28,10.60
2012,06,19,07,29,10.60
2012,06,19,07,30,10.60
2012,06,19,07,31,10.60
2012,06,19,07,32,10.60
2012,06,19,07,33,10.60
2012,06,19,07,34,10.60
2012,06,19,07,35,10.60
2012,06,19,07,36,10.60
2012,06,19,07,37,10.60
2012,06,19,07,38,10.60
2012,06,19,07,39,10.60
2012,06,19,07,40,10.60
2012,06,19,07,41,10.60
2012,06,19,07,42,10.60
2012,06,19,07,43,10.60
2012,06,19,07,44,10.60
2012,06,19,07,45,10.60
2012,06,19,07,46,10.60
2012,06,19,07,47,10.60
2012,06,19,07,48,10.60
2012,06,19,07,49,10.60
2012,06,19,07,50,10.60
2012,06,19,07,51,10.60
2012,06,19,07,52,10.60
2012,06,19,07,53,10.60
2012,06,19,07,54,10.70
2012,06,19,07,55,10.70
2012,06,19,07,56,10.70
2012,06,19,07,57,10.70
2012,06,19,07,58,10.70
2012,06,19,07,59,10.70
2012,06,19,08,00,10.70
2012,06,19,08,01,10.70
2012,06,19,08,02,10.70
2012,06,19,08,03,10.70
2012,06,19,08,04,10.70
2012,06,19,08,05,10.70
2012,06,19,08,06,10.70
2012,06,19,08,07,10.70
2012,06,19,08,08,10.80
2012,06,19,08,09,10.80
2012,06,19,08,10,10.80
2012,06,19,08,11,10.80
2012,06,19,08,12,10.80
2012,06,19,08,13,10.70
2012,06,19,08,14,10.80
2012,06,19,08,15,10.80
2012,06,19,08,16,10.80
2012,06,19,08,17,10.90
2012,06,19,08,18,10.90
2012,06,19,08,19,10.90
2012,06,19,08,20,10.90
2012,06,19,08,21,10.90
2012,06,19,08,22,10.90
2012,06,19,08,23,11.00
2012,06,19,08,24,11.10
2012,06,19,08,25,11.10
2012,06,19,08,26,11.10
2012,06,19,08,27,11.10
2012,06,19,08,28,11.20
2012,06,19,08,29,11.20
2012,06,19,08,30,11.20
2012,06,19,08,31,11.20
2012,06,19,08,32,11.30
2012,06,19,08,33,11.30
2012,06,19,08,34,11.30
2012,06,19,08,35,11.40
2012,06,19,08,36,11.40
2012,06,19,08,37,11.40
2012,06,19,08,38,11.40
2012,06,19,08,39,11.40
2012,06,19,08,40,11.40
2012,06,19,08,41,11.40
2012,06,19,08,42,11.40
2012,06,19,08,43,11.40
2012,06,19,08,44,11.40
2012,06,19,08,45,11.40
2012,06,19,08,46,11.40
2012,06,19,08,47,11.40
2012,06,19,08,48,11.40
2012,06,19,08,49,11.40
2012,06,19,08,50,11.40
2012,06,19,08,51,11.40
2012,06,19,08,52,11.40
2012,06,19,08,53,11.40
2012,06,19,08,54,11.40
2012,06,19,08,55,11.40
2012,06,19,08,56,11.40
2012,06,19,08,57,11.40
2012,06,19,08,58,11.40
2012,06,19,08,59,11.30
2012,06,19,09,00,11.30
2012,06,19,09,01,11.30
2012,06,19,09,02,11.30
2012,06,19,09,03,11.40
2012,06,19,09,04,11.40
2012,06,19,09,05,11.40
2012,06,19,09,06,11.50
2012,06,19,09,07,11.40
2012,06,19,09,08,11.40
2012,06,19,09,09,11.40
2012,06,19,09,10,11.40
2012,06,19,09,11,11.40
2012,06,19,09,12,11.50
2012,06,19,09,13,11.60
2012,06,19,09,14,11.60
2012,06,19,09,15,11.60
2012,06,19,09,16,11.70
2012,06,19,09,17,11.70
2012,06,19,09,18,11.80
2012,06,19,09,19,11.80
2012,06,19,09,20,11.80
2012,06,19,09,21,11.80
2012,06,19,09,22,11.80
2012,06,19,09,23,11.80
2012,06,19,09,24,11.80
2012,06,19,09,25,11.80
2012,06,19,09,26,11.80
2012,06,19,09,27,11.80
2012,06,19,09,28,11.70
2012,06,19,09,29,11.70
2012,06,19,09,30,11.60
2012,06,19,09,31,11.60
2012,06,19,09,32,11.60
2012,06,19,09,33,11.60
2012,06,19,09,34,11.50
2012,06,19,09,35,11.40
2012,06,19,09,36,11.40
2012,06,19,09,37,11.40
2012,06,19,09,38,11.40
2012,06,19,09,39,11.40
2012,06,19,09,40,11.50
2012,06,19,09,41,11.60
2012,06,19,09,42,11.60
2012,06,19,09,43,11.70
2012,06,19,09,44,11.70
2012,06,19,09,45,11.70
2012,06,19,09,46,11.70
2012,06,19,09,47,11.80
2012,06,19,09,48,11.80
2012,06,19,09,49,11.80
2012,06,19,09,50,11.80
2012,06,19,09,51,11.80
2012,06,19,09,52,11.70
2012,06,19,09,53,11.70
2012,06,19,09,54,11.80
2012,06,19,09,55,11.80
2012,06,19,09,56,11.80
2012,06,19,09,57,11.80
2012,06,19,09,58,11.80
2012,06,19,09,59,11.80
2012,06,19,10,00,11.90
2012,06,19,10,01,11.90
2012,06,19,10,02,11.90
2012,06,19,10,03,11.80
2012,06,19,10,04,11.80
2012,06,19,10,05,11.80
2012,06,19,10,06,11.80
2012,06,19,10,07,11.80
2012,06,19,10,08,11.80
2012,06,19,10,09,11.90
2012,06,19,10,10,11.90
2012,06,19,10,11,11.90
2012,06,19,10,12,12.00
2012,06,19,10,13,12.10
2012,06,19,10,14,12.10
2012,06,19,10,15,12.20
2012,06,19,10,16,12.30
2012,06,19,10,17,12.30
2012,06,19,10,18,12.30
2012,06,19,10,19,12.30
2012,06,19,10,20,12.30
2012,06,19,10,21,12.40
2012,06,19,10,22,12.40
2012,06,19,10,23,12.40
2012,06,19,10,24,12.30
2012,06,19,10,25,12.30
2012,06,19,10,26,12.30
2012,06,19,10,27,12.40
2012,06,19,10,28,12.50
2012,06,19,10,29,12.60
2012,06,19,10,30,12.50
2012,06,19,10,31,12.50
2012,06,19,10,32,12.40
2012,06,19,10,33,12.40
2012,06,19,10,34,12.40
2012,06,19,10,35,12.30
2012,06,19,10,36,12.30
2012,06,19,10,37,12.30
2012,06,19,10,38,12.30
2012,06,19,10,39,12.40
2012,06,19,10,40,12.40
2012,06,19,10,41,12.40
2012,06,19,10,42,12.40
2012,06,19,10,43,12.50
2012,06,19,10,44,12.50
2012,06,19,10,45,12.50
2012,06,19,10,46,12.50
2012,06,19,10,47,12.40
2012,06,19,10,48,12.50
2012,06,19,10,49,12.50
2012,06,19,10,50,12.60
2012,06,19,10,51,12.60
2012,06,19,10,52,12.60
2012,06,19,10,53,12.60
2012,06,19,10,54,12.60
2012,06,19,10,55,12.60
2012,06,19,10,56,12.60
2012,06,19,10,57,12.60
2012,06,19,10,58,12.60
2012,06,19,10,59,12.60
2012,06,19,11,00,12.80
2012,06,19,11,01,12.80
2012,06,19,11,02,12.80
2012,06,19,11,03,12.80
2012,06,19,11,04,12.80
2012,06,19,11,05,12.80
2012,06,19,11,06,12.90
2012,06,19,11,07,12.90
2012,06,19,11,08,12.90
2012,06,19,11,09,12.90
2012,06,19,11,10,12.80
2012,06,19,11,11,12.80
2012,06,19,11,12,12.80
2012,06,19,11,13,12.80
2012,06,19,11,14,12.80
2012,06,19,11,15,12.90
2012,06,19,11,16,12.90
2012,06,19,11,17,13.00
2012,06,19,11,18,13.10
2012,06,19,11,19,13.30
2012,06,19,11,20,13.30
2012,06,19,11,21,13.30
2012,06,19,11,22,13.40
2012,06,19,11,23,13.40
2012,06,19,11,24,13.30
2012,06,19,11,25,13.40
2012,06,19,11,26,13.50
2012,06,19,11,27,13.50
2012,06,19,11,28,13.50
2012,06,19,11,29,13.50
2012,06,19,11,30,13.40
2012,06,19,11,31,13.30
2012,06,19,11,32,13.30
2012,06,19,11,33,13.30
2012,06,19,11,34,13.30
2012,06,19,11,35,13.30
2012,06,19,11,36,13.40
2012,06,19,11,37,13.40
2012,06,19,11,38,13.50
2012,06,19,11,39,13.60
2012,06,19,11,40,13.70
2012,06,19,11,41,13.70
2012,06,19,11,42,13.80
2012,06,19,11,43,13.80
2012,06,19,11,44,13.80
2012,06,19,11,45,13.80
2012,06,19,11,46,13.90
2012,06,19,11,47,14.00
2012,06,19,11,48,14.00
2012,06,19,11,49,14.20
2012,06,19,11,50,14.10
2012,06,19,11,51,14.10
2012,06,19,11,52,14.10
2012,06,19,11,53,14.10
2012,06,19,11,54,14.20
2012,06,19,11,55,14.30
2012,06,19,11,56,14.30
2012,06,19,11,57,14.30
2012,06,19,11,58,14.40
2012,06,19,11,59,14.50
2012,06,19,12,00,14.50
2012,06,19,12,01,14.40
2012,06,19,12,02,14.40
2012,06,19,12,03,14.40
2012,06,19,12,04,14.40
2012,06,19,12,05,14.40
2012,06,19,12,06,14.30
2012,06,19,12,07,14.30
2012,06,19,12,08,14.30
2012,06,19,12,09,14.40
2012,06,19,12,10,14.40
2012,06,19,12,11,14.40
2012,06,19,12,12,14.50
2012,06,19,12,13,14.70
2012,06,19,12,14,14.80
2012,06,19,12,15,14.80
2012,06,19,12,16,14.70
2012,06,19,12,17,14.60
2012,06,19,12,18,14.70
2012,06,19,12,19,14.70
2012,06,19,12,20,14.70
2012,06,19,12,21,14.60
2012,06,19,12,22,14.60
2012,06,19,12,23,14.70
2012,06,19,12,24,14.80
2012,06,19,12,25,14.80
2012,06,19,12,26,14.80
2012,06,19,12,27,14.80
2012,06,19,12,28,14.70
2012,06,19,12,29,14.60
2012,06,19,12,30,14.50
2012,06,19,12,31,14.60
2012,06,19,12,32,14.60
2012,06,19,12,33,14.60
2012,06,19,12,34,14.60
2012,06,19,12,35,14.60
2012,06,19,12,36,14.70
2012,06,19,12,37,14.70
2012,06,19,12,38,14.60
2012,06,19,12,39,14.50
2012,06,19,12,40,14.60
2012,06,19,12,41,14.60
2012,06,19,12,42,14.60
2012,06,19,12,43,14.60
2012,06,19,12,44,14.60
2012,06,19,12,45,14.60
2012,06,19,12,46,14.70
2012,06,19,12,47,14.70
2012,06,19,12,48,14.80
2012,06,19,12,49,14.70
2012,06,19,12,50,14.70
2012,06,19,12,51,14.80
2012,06,19,12,52,14.80
2012,06,19,12,53,14.70
2012,06,19,12,54,14.60
2012,06,19,12,55,14.60
2012,06,19,12,56,14.70
2012,06,19,12,57,14.80
2012,06,19,12,58,14.90
2012,06,19,12,59,15.00
2012,06,19,13,00,15.20
2012,06,19,13,01,15.30
2012,06,19,13,02,15.50
2012,06,19,13,03,15.60
2012,06,19,13,04,15.70
2012,06,19,13,05,15.80
2012,06,19,13,06,15.80
2012,06,19,13,07,15.80
2012,06,19,13,08,15.80
2012,06,19,13,09,15.70
2012,06,19,13,10,15.40
2012,06,19,13,11,15.20
2012,06,19,13,12,15.20
2012,06,19,13,13,15.20
2012,06,19,13,14,15.30
2012,06,19,13,15,15.40
2012,06,19,13,16,15.60
2012,06,19,13,17,15.70
2012,06,19,13,18,15.80
2012,06,19,13,19,15.80
2012,06,19,13,20,15.80
2012,06,19,13,21,15.70
2012,06,19,13,22,15.70
2012,06,19,13,23,15.60
2012,06,19,13,24,15.60
2012,06,19,13,25,15.60
2012,06,19,13,26,15.60
2012,06,19,13,27,15.60
2012,06,19,13,28,15.60
2012,06,19,13,29,15.70
2012,06,19,13,30,15.70
2012,06,19,13,31,15.90
2012,06,19,13,32,16.10
2012,06,19,13,33,16.20
2012,06,19,13,34,16.20
2012,06,19,13,35,16.10
2012,06,19,13,36,16.10
2012,06,19,13,37,15.90
2012,06,19,13,38,15.80
2012,06,19,13,39,15.80
2012,06,19,13,40,15.80
2012,06,19,13,41,15.60
2012,06,19,13,42,15.30
2012,06,19,13,43,15.00
2012,06,19,13,44,14.90
2012,06,19,13,45,14.80
2012,06,19,13,46,14.60
2012,06,19,13,47,14.50
2012,06,19,13,48,14.40
2012,06,19,13,49,14.30
2012,06,19,13,50,14.20
2012,06,19,13,51,14.10
2012,06,19,13,52,14.10
2012,06,19,13,53,14.20
2012,06,19,13,54,14.30
2012,06,19,13,55,14.40
2012,06,19,13,56,14.50
2012,06,19,13,57,14.50
2012,06,19,13,58,14.50
2012,06,19,13,59,14.60
2012,06,19,14,00,14.60
2012,06,19,14,01,14.50
2012,06,19,14,02,14.50
2012,06,19,14,03,14.60
2012,06,19,14,04,14.80
2012,06,19,14,05,14.80
2012,06,19,14,06,14.70
2012,06,19,14,07,14.70
2012,06,19,14,08,14.80
2012,06,19,14,09,14.90
2012,06,19,14,10,14.90
2012,06,19,14,11,14.80
2012,06,19,14,12,14.80
2012,06,19,14,13,14.80
2012,06,19,14,14,14.80
2012,06,19,14,15,14.80
2012,06,19,14,16,14.90
2012,06,19,14,17,14.90
2012,06,19,14,18,15.00
2012,06,19,14,19,15.00
2012,06,19,14,20,15.00
2012,06,19,14,21,15.00
2012,06,19,14,22,14.90
2012,06,19,14,23,14.90
2012,06,19,14,24,15.10
2012,06,19,14,25,15.20
2012,06,19,14,26,15.30
2012,06,19,14,27,15.40
2012,06,19,14,28,15.50
2012,06,19,14,29,15.50
2012,06,19,14,30,15.60
2012,06,19,14,31,15.60
2012,06,19,14,32,15.60
2012,06,19,14,33,15.80
2012,06,19,14,34,15.80
2012,06,19,14,35,15.70
2012,06,19,14,36,15.60
2012,06,19,14,37,15.40
2012,06,19,14,38,15.30
2012,06,19,14,39,15.30
2012,06,19,14,40,15.30
2012,06,19,14,41,15.30
2012,06,19,14,42,15.30
2012,06,19,14,43,15.30
2012,06,19,14,44,15.40
2012,06,19,14,45,15.40
2012,06,19,14,46,15.50
2012,06,19,14,47,15.60
2012,06,19,14,48,15.60
2012,06,19,14,49,15.60
2012,06,19,14,50,15.70
2012,06,19,14,51,15.90
2012,06,19,14,52,16.00
2012,06,19,14,53,16.10
2012,06,19,14,54,16.20
2012,06,19,14,55,16.30
2012,06,19,14,56,16.50
2012,06,19,14,57,16.70
2012,06,19,14,58,16.70
2012,06,19,14,59,16.70
2012,06,19,15,00,16.70
2012,06,19,15,01,16.70
2012,06,19,15,02,16.70
2012,06,19,15,03,16.90
2012,06,19,15,04,16.80
2012,06,19,15,05,16.80
2012,06,19,15,06,16.90
2012,06,19,15,07,16.90
2012,06,19,15,08,17.00
2012,06,19,15,09,17.10
2012,06,19,15,10,17.00
2012,06,19,15,11,16.90
2012,06,19,15,12,16.70
2012,06,19,15,13,16.50
2012,06,19,15,14,16.30
2012,06,19,15,15,16.20
2012,06,19,15,16,16.00
2012,06,19,15,17,16.00
2012,06,19,15,18,16.20
2012,06,19,15,19,16.30
2012,06,19,15,20,16.40
2012,06,19,15,21,16.40
2012,06,19,15,22,16.40
2012,06,19,15,23,16.40
2012,06,19,15,24,16.50
2012,06,19,15,25,16.60
2012,06,19,15,26,16.60
2012,06,19,15,27,16.60
2012,06,19,15,28,16.40
2012,06,19,15,29,16.40
2012,06,19,15,30,16.40
2012,06,19,15,31,16.40
2012,06,19,15,32,16.30
2012,06,19,15,33,16.20
2012,06,19,15,34,16.00
2012,06,19,15,35,15.80
2012,06,19,15,36,15.60
2012,06,19,15,37,15.50
2012,06,19,15,38,15.40
2012,06,19,15,39,15.30
2012,06,19,15,40,15.30
2012,06,19,15,41,15.30
2012,06,19,15,42,15.30
2012,06,19,15,43,15.30
2012,06,19,15,44,15.30
2012,06,19,15,45,15.20
2012,06,19,15,46,15.10
2012,06,19,15,47,15.20
2012,06,19,15,48,15.20
2012,06,19,15,49,15.20
2012,06,19,15,50,15.20
2012,06,19,15,51,15.20
2012,06,19,15,52,15.30
2012,06,19,15,53,15.30
2012,06,19,15,54,15.40
2012,06,19,15,55,15.50
2012,06,19,15,56,15.50
2012,06,19,15,57,15.40
2012,06,19,15,58,15.40
2012,06,19,15,59,15.40
2012,06,19,16,00,15.40
2012,06,19,16,01,15.40
2012,06,19,16,02,15.50
2012,06,19,16,03,15.40
2012,06,19,16,04,15.40
2012,06,19,16,05,15.50
2012,06,19,16,06,15.60
2012,06,19,16,07,15.70
2012,06,19,16,08,15.70
2012,06,19,16,09,15.80
2012,06,19,16,10,15.80
2012,06,19,16,11,15.80
2012,06,19,16,12,15.80
2012,06,19,16,13,15.80
2012,06,19,16,14,15.80
2012,06,19,16,15,15.80
2012,06,19,16,16,15.80
2012,06,19,16,17,15.80
2012,06,19,16,18,15.80
2012,06,19,16,19,15.90
2012,06,19,16,20,16.00
2012,06,19,16,21,16.10
2012,06,19,16,22,16.20
2012,06,19,16,23,16.30
2012,06,19,16,24,16.30
2012,06,19,16,25,16.40
2012,06,19,16,26,16.40
2012,06,19,16,27,16.40
2012,06,19,16,28,16.40
2012,06,19,16,29,16.40
2012,06,19,16,30,16.40
2012,06,19,16,31,16.30
2012,06,19,16,32,16.10
2012,06,19,16,33,16.00
2012,06,19,16,34,15.90
2012,06,19,16,35,15.90
2012,06,19,16,36,15.90
2012,06,19,16,37,15.90
2012,06,19,16,38,15.90
2012,06,19,16,39,16.00
2012,06,19,16,40,16.10
2012,06,19,16,41,16.00
2012,06,19,16,42,15.90
2012,06,19,16,43,16.00
2012,06,19,16,44,16.00
2012,06,19,16,45,15.90
2012,06,19,16,46,15.90
2012,06,19,16,47,15.90
2012,06,19,16,48,16.00
2012,06,19,16,49,16.10
2012,06,19,16,50,16.10
2012,06,19,16,51,16.10
2012,06,19,16,52,16.10
2012,06,19,16,53,15.80
2012,06,19,16,54,15.80
2012,06,19,16,55,15.80
2012,06,19,16,56,15.80
2012,06,19,16,57,15.80
2012,06,19,16,58,15.80
2012,06,19,16,59,15.80
2012,06,19,17,00,15.90
2012,06,19,17,01,16.00
2012,06,19,17,02,16.20
2012,06,19,17,03,16.20
2012,06,19,17,04,16.20
2012,06,19,17,05,16.10
2012,06,19,17,06,16.10
2012,06,19,17,07,16.10
2012,06,19,17,08,16.10
2012,06,19,17,09,16.10
2012,06,19,17,10,16.20
2012,06,19,17,11,16.30
2012,06,19,17,12,16.40
2012,06,19,17,13,16.40
2012,06,19,17,14,16.50
2012,06,19,17,15,16.60
2012,06,19,17,16,16.60
2012,06,19,17,17,16.60
2012,06,19,17,18,16.50
2012,06,19,17,19,16.40
2012,06,19,17,20,16.40
2012,06,19,17,21,16.40
2012,06,19,17,22,16.40
2012,06,19,17,23,16.40
2012,06,19,17,24,16.50
2012,06,19,17,25,16.60
2012,06,19,17,26,16.60
2012,06,19,17,27,16.60
2012,06,19,17,28,16.60
2012,06,19,17,29,16.60
2012,06,19,17,30,16.70
2012,06,19,17,31,16.70
2012,06,19,17,32,16.60
2012,06,19,17,33,16.60
2012,06,19,17,34,16.60
2012,06,19,17,35,16.50
2012,06,19,17,36,16.40
2012,06,19,17,37,16.40
2012,06,19,17,38,16.50
2012,06,19,17,39,16.60
2012,06,19,17,40,16.70
2012,06,19,17,41,16.70
2012,06,19,17,42,16.70
2012,06,19,17,43,16.60
2012,06,19,17,44,16.60
2012,06,19,17,45,16.60
2012,06,19,17,46,16.60
2012,06,19,17,47,16.60
2012,06,19,17,48,16.60
2012,06,19,17,49,16.60
2012,06,19,17,50,16.60
2012,06,19,17,51,16.60
2012,06,19,17,52,16.70
2012,06,19,17,53,16.70
2012,06,19,17,54,16.70
2012,06,19,17,55,16.70
2012,06,19,17,56,16.70
2012,06,19,17,57,16.70
2012,06,19,17,58,16.70
2012,06,19,17,59,16.70
2012,06,19,18,00,16.70
2012,06,19,18,01,16.70
2012,06,19,18,02,16.70
2012,06,19,18,03,16.70
2012,06,19,18,04,16.80
2012,06,19,18,05,16.90
2012,06,19,18,06,17.00
2012,06,19,18,07,17.00
2012,06,19,18,08,17.00
2012,06,19,18,09,17.00
2012,06,19,18,10,16.90
2012,06,19,18,11,16.90
2012,06,19,18,12,16.90
2012,06,19,18,13,17.00
2012,06,19,18,14,16.90
2012,06,19,18,15,16.90
2012,06,19,18,16,16.80
2012,06,19,18,17,16.80
2012,06,19,18,18,16.80
2012,06,19,18,19,16.70
2012,06,19,18,20,16.80
2012,06,19,18,21,16.90